CZ-2C DEB

基本信息
目录编号:
57571
目录名称:
CZ-2C DEB
国际标识:
2023-116D
轨道中心:
EARTH
物体状态:
已陨落(2024-03-01)
发射日期:
2023-08-08 UTC
轨道信息
数据来源: 国际轨道数据
星历时间: 2024-02-28T11:22:15+0800
半长轴: 6555.345km
偏心率: 0.0012308
轨道倾角: 97.139°
近地点辐角: 196.507°
升交点赤经: 63.878°
平近点角: 163.583°
近地点: 169.141km
远地点: 185.279km
周期: 88.035分钟
每日圈数: 16.357219
详细信息
发射场:
TSC
轨道高度:
LEO
数据来源:
AOE Integration Group
参考系:
TEME
时间系统:
UTC
历元类型:
SGP4
2D轨道图
3D轨道图
轨道高度分析图
轨道倾角分析图
轨道综合分析图
查看轨道综合分析图